Date String (YYYY-MM-DD hh:mm:ss) UTC,Instrument flags,absolute air pressure of the measurement (hPa),sample flow rate (lpm),inlet stack bypass flow (lpm),air temperature of the measurement (°C),ambient temperature measured by the external sensor (°C),aerosol sample conditioner tube jacket temperature (°C),OPC LED temperature (°C),internal box temperature (°C),relative humidity of the measurement (%),span deviation,mass concentration of particles derived from Lorenz-Mie calculation of OPC scattering (μg/m³),mass concentration of particles derived from Lorenz-Mie calculation of OPC scattering (μg/m³),mass concentration of particles derived from Lorenz-Mie calculation of OPC scattering (μg/m³)
DateTimeUTC,F1_M11,P_M11,Q1_M11,Q2_M11,T1_M11,T2_M11,T3_M11,T4_M11,T5_M11,U1_M11,ZSPAN_M11,X0_M11,X2_M11,X1_M11
2023-12-08 12:00:00,SystemResetWarning,0821.3,5.00,000.00,021.4,020.4,000.0,029.8,022.6,12.0,0000.0,0004.05,0001.73,0001.14
2023-12-08 12:01:00,SystemResetWarning,0821.3,5.00,000.00,021.4,020.4,000.0,029.8,022.6,11.8,0000.0,0003.98,0001.71,0001.11
2023-12-08 12:02:00,SystemResetWarning,0821.5,5.00,000.00,021.4,020.4,000.0,029.8,022.7,11.5,0000.0,0004.00,0001.72,0001.09
2023-12-08 12:03:00,SystemResetWarning,0821.5,5.01,000.00,021.4,020.3,000.0,029.8,022.6,11.3,0000.0,0004.13,0001.76,0001.08
2023-12-08 12:04:00,SystemResetWarning,0821.9,5.00,000.00,021.4,020.3,000.0,029.8,022.6,11.7,0000.0,0004.22,0001.77,0001.07
2023-12-08 12:05:00,SystemResetWarning,0821.8,5.01,000.00,021.4,020.4,000.0,029.8,022.6,11.7,0000.0,0004.19,0001.75,0001.04
2023-12-08 12:06:00,SystemResetWarning,0822.0,5.00,000.00,021.4,020.4,000.0,029.8,022.6,11.6,0000.0,0004.03,0001.71,0001.00
2023-12-08 12:07:00,SystemResetWarning,0822.0,5.00,000.00,021.4,020.4,000.0,029.8,022.6,11.7,0000.0,0003.53,0001.60,0000.93
2023-12-08 12:08:00,SystemResetWarning,0822.0,5.00,000.00,021.3,020.4,000.0,029.8,022.6,11.7,0000.0,0002.99,0001.51,0000.88
2023-12-08 12:09:00,SystemResetWarning,0821.7,5.00,000.00,021.3,020.4,000.0,029.8,022.6,11.7,0000.0,0003.04,0001.42,0000.86
2023-12-08 12:10:00,SystemResetWarning,0821.7,5.00,000.00,021.4,020.4,000.0,029.8,022.7,11.7,0000.0,0003.26,0001.42,0000.85
2023-12-08 12:11:00,SystemResetWarning,0821.6,5.00,000.00,021.4,020.5,000.0,029.8,022.7,11.9,0000.0,0003.19,0001.40,0000.85
2023-12-08 12:12:00,SystemResetWarning,0821.6,5.00,000.00,021.4,020.5,000.0,029.8,022.7,12.4,0000.0,0003.07,0001.39,0000.85
2023-12-08 12:13:00,SystemResetWarning,0821.8,5.00,000.00,021.4,020.5,000.0,029.8,022.7,12.8,0000.0,0002.88,0001.33,0000.84
2023-12-08 12:14:00,SystemResetWarning,0821.9,5.00,000.00,021.4,020.5,000.0,029.7,022.7,12.9,0000.0,0002.84,0001.31,0000.83
2023-12-08 12:15:00,SystemResetWarning,0822.0,5.00,000.00,021.4,020.5,000.0,029.8,022.7,12.8,0000.0,0002.66,0001.26,0000.81
2023-12-08 12:16:00,SystemResetWarning,0821.9,5.00,000.00,021.4,020.5,000.0,029.8,022.7,12.6,0000.0,0002.98,0001.26,0000.81
2023-12-08 12:17:00,SystemResetWarning,0821.8,5.01,000.00,021.4,020.5,000.0,029.8,022.7,12.5,0000.0,0003.42,0001.28,0000.82
2023-12-08 12:18:00,SystemResetWarning,0821.8,5.00,000.00,021.4,020.5,000.0,029.7,022.7,12.6,0000.0,0003.56,0001.36,0000.86
2023-12-08 12:19:00,SystemResetWarning,0821.7,5.00,000.00,021.4,020.5,000.0,029.7,022.7,12.7,0000.0,0003.79,0001.42,0000.89
2023-12-08 12:20:00,SystemResetWarning,0821.7,5.00,000.00,021.4,020.5,000.0,029.7,022.7,12.7,0000.0,0003.80,0001.43,0000.90
2023-12-08 12:21:00,SystemResetWarning,0821.7,5.00,000.00,021.4,020.5,000.0,029.7,022.7,12.8,0000.0,0003.39,0001.40,0000.90
2023-12-08 12:22:00,SystemResetWarning,0821.7,4.99,000.00,021.4,020.5,000.0,029.7,022.7,12.9,0000.0,0003.78,0001.37,0000.88
2023-12-08 12:23:00,SystemResetWarning,0821.6,5.00,000.00,021.4,020.5,000.0,029.7,022.7,12.9,0000.0,0004.29,0001.40,0000.88
2023-12-08 12:24:00,SystemResetWarning,0821.6,5.01,000.00,021.4,020.5,000.0,029.7,022.7,13.0,0000.0,0005.06,0001.42,0000.90
2023-12-08 12:25:00,SystemResetWarning,0821.6,5.00,000.00,021.4,020.5,000.0,029.7,022.7,13.0,0000.0,0006.67,0001.47,0000.92
2023-12-08 12:26:00,SystemResetWarning,0821.5,4.99,000.00,021.4,020.5,000.0,029.7,022.7,13.1,0000.0,0007.21,0001.52,0000.93
2023-12-08 12:27:00,SystemResetWarning,0821.9,5.00,000.00,021.4,020.5,000.0,029.7,022.8,13.1,0000.0,0007.88,0001.58,0000.95
2023-12-08 12:28:00,SystemResetWarning,0821.7,5.01,000.00,021.4,020.5,000.0,029.7,022.7,13.1,0000.0,0007.76,0001.58,0000.96
2023-12-08 12:29:00,SystemResetWarning,0821.6,5.01,000.00,021.4,020.5,000.0,029.7,022.7,13.1,0000.0,0007.72,0001.57,0000.98
2023-12-08 12:30:00,SystemResetWarning,0821.6,4.99,000.00,021.4,020.4,000.0,029.7,022.7,13.0,0000.0,0007.70,0001.60,0001.00
2023-12-08 12:31:00,SystemResetWarning,0821.8,4.99,000.00,021.4,020.4,000.0,029.7,022.7,12.9,0000.0,0007.64,0001.59,0001.00
2023-12-08 12:32:00,SystemResetWarning,0822.1,5.01,000.00,021.4,020.5,000.0,029.7,022.7,12.8,0000.0,0007.65,0001.60,0001.00
2023-12-08 12:33:00,SystemResetWarning,0821.7,5.01,000.00,021.4,020.5,000.0,029.7,022.7,12.8,0000.0,0007.70,0001.67,0001.02
2023-12-08 12:34:00,SystemResetWarning,0821.5,5.00,000.00,021.4,020.5,000.0,029.7,022.7,12.5,0000.0,0008.11,0001.71,0001.03
2023-12-08 12:35:00,SystemResetWarning,0821.6,4.99,000.00,021.4,020.5,000.0,029.7,022.7,12.5,0000.0,0007.97,0001.73,0001.04
2023-12-08 12:36:00,SystemResetWarning,0821.6,4.99,000.00,021.4,020.4,000.0,029.7,022.7,12.4,0000.0,0007.47,0001.73,0001.03
2023-12-08 12:37:00,SystemResetWarning,0821.6,5.00,000.00,021.4,020.4,000.0,029.7,022.7,12.1,0000.0,0007.30,0001.69,0001.02
2023-12-08 12:38:00,SystemResetWarning,0821.6,5.01,000.00,021.4,020.4,000.0,029.7,022.7,12.2,0000.0,0007.55,0001.69,0001.01
2023-12-08 12:39:00,SystemResetWarning,0821.6,5.00,000.00,021.4,020.4,000.0,029.7,022.7,12.2,0000.0,0007.54,0001.68,0001.02
2023-12-08 12:40:00,SystemResetWarning,0821.7,5.00,000.00,021.4,020.4,000.0,029.7,022.7,12.2,0000.0,0007.57,0001.68,0001.01
2023-12-08 12:41:00,SystemResetWarning,0821.7,4.99,000.00,021.4,020.4,000.0,029.7,022.7,12.3,0000.0,0007.57,0001.65,0001.00
2023-12-08 12:42:00,SystemResetWarning,0821.8,4.99,000.00,021.4,020.4,000.0,029.7,022.7,12.2,0000.0,0007.70,0001.67,0000.99
2023-12-08 12:43:00,SystemResetWarning,0821.7,5.00,000.00,021.4,020.4,000.0,029.7,022.7,12.0,0000.0,0007.84,0001.69,0000.99
2023-12-08 12:44:00,SystemResetWarning,0821.8,5.01,000.00,021.4,020.4,000.0,029.7,022.7,11.9,0000.0,0007.65,0001.63,0000.98
2023-12-08 12:45:00,SystemResetWarning,0821.8,5.01,000.00,021.3,020.4,000.0,029.7,022.7,12.0,0000.0,0006.68,0001.56,0000.95
2023-12-08 12:46:00,SystemResetWarning,0821.8,5.00,000.00,021.3,020.4,000.0,029.7,022.6,12.1,0000.0,0007.03,0001.58,0000.94
2023-12-08 12:47:00,SystemResetWarning,0821.8,5.00,000.00,021.3,020.4,000.0,029.7,022.6,12.1,0000.0,0007.34,0001.55,0000.94
2023-12-08 12:48:00,SystemResetWarning,0821.8,4.98,000.00,021.3,020.4,000.0,029.7,022.6,12.0,0000.0,0007.62,0001.56,0000.93
2023-12-08 12:49:00,SystemResetWarning,0821.9,4.99,000.00,021.3,020.4,000.0,029.7,022.6,12.0,0000.0,0005.94,0001.52,0000.91
2023-12-08 12:50:00,SystemResetWarning,0822.0,5.01,000.00,021.3,020.4,000.0,029.7,022.6,12.0,0000.0,0005.87,0001.52,0000.90
2023-12-08 12:51:00,SystemResetWarning,0821.9,5.01,000.00,021.3,020.4,000.0,029.7,022.6,12.0,0000.0,0005.82,0001.52,0000.89
2023-12-08 12:52:00,SystemResetWarning,0821.9,5.00,000.00,021.3,020.4,000.0,029.7,022.6,12.1,0000.0,0005.79,0001.53,0000.89
2023-12-08 12:53:00,SystemResetWarning,0822.0,5.00,000.00,021.3,020.4,000.0,029.7,022.6,12.5,0000.0,0005.63,0001.52,0000.88
2023-12-08 12:54:00,SystemResetWarning,0821.9,5.00,000.00,021.3,020.4,000.0,029.7,022.6,12.7,0000.0,0005.32,0001.47,0000.87
2023-12-08 12:55:00,SystemResetWarning,0822.0,5.00,000.00,021.3,020.4,000.0,029.7,022.6,12.7,0000.0,0005.63,0001.49,0000.86
2023-12-08 12:56:00,SystemResetWarning,0822.0,4.99,000.00,021.3,020.4,000.0,029.7,022.6,12.7,0000.0,0006.27,0001.52,0000.87
2023-12-08 12:57:00,SystemResetWarning,0821.9,5.00,000.00,021.3,020.3,000.0,029.6,022.6,12.7,0000.0,0005.76,0001.47,0000.87
2023-12-08 12:58:00,SystemResetWarning,0821.9,5.00,000.00,021.3,020.3,000.0,029.6,022.5,12.8,0000.0,0004.41,0001.42,0000.86
2023-12-08 12:59:00,SystemResetWarning,0821.9,5.01,000.00,021.3,020.3,000.0,029.6,022.6,12.8,0000.0,0003.70,0001.41,0000.86
